SCOUT A DEB, 2141

Orbit data source: Space-Track

SCOUT A DEB, 2141 is space debris in LEO originally from a launch on Fri, 28 Jan 1966 UTC launched from the Air Force Western Test Range (AFWTR). Debris objects in space refer to the collection of defunct objects orbiting the Earth. Examples of debris include non-operational satellites, rocket bodies, and fragments generated from explosions, collisions, or faulty payload assembly.

Loading next visibility...
Identifier
2141, 1966-005D
Orbit
LEO
Country
Flag of USUS
Related business
Manufacturer
Unknown
Mission
Spacecraft
Bus & Motor
Unknown
Mass
Unknown
Launch date (UTC)
1966-01-28 (60 years ago)
Launch vehicle
Unknown
Launch site
Air Force Western Test Range (AFWTR)
Object type
Payload
Rocket body
Debris
Shape & HBR
Unknown shape, 0.1 m
Radar Cross Section
Small (<0.1 m²)

Expand to show TLE details & history
Last TLE update: 16 hours ago

TLE from 16 hours ago
0 SCOUT A DEB
1 02141U 66005D   25353.68825983  .00000504  00000-0  28728-3 0  9991
2 02141  90.2388 253.8228 0113129 274.7714  84.0557 14.05639839 43362
Epoch: 2025-12-19T16:31Z
TLE epoch observation values (Epoch: 2025-12-19T16:31:05.649Z)
Latitude
-0.00004°
Longitude
-82.47656°
Altitude
869.787 km
Speed
7.421 km/s
True Right ascension
16h 55m 17s
True Declination
0° 00' 00"
Sunlit
Object was in daylight at epoch
Visualization orbit readout
Latitude
Unknown
Longitude
Unknown
Altitude
Unknown
Speed
Unknown
Apparent Right ascension
Unknown
Apparent Declination
Unknown
Sunlit
N/A
Visualization observer readout
Local Sidereal Time
07:30:45
Azimuth
Unknown
Elevation
Unknown
Doppler factor
Unknown
Orbital elements
Apogee altitude
953.312 km
Perigee altitude
789.287 km
Semi-major axis
7,249.436 km
Eccentricity
0.01131
Inclination
90.2388°
RAAN
253.8228°
Arg. of periapsis
274.7714°
True anomaly
85.34687°
Mean anomaly
84.0557°
Eccentric anomaly
84.70111°
Mean motion
3.51631 °/min
Orbital period
102.38 mins
BSTAR
0.00028728
Loading maneuver chart data...
Computing Atmospheric mass density...
Loading historical data...
Loading historical data...
Loading historical data...
Loading historical data...
Loading historical data...
Loading historical data...
Loading historical data...

Documentation

Showing up to 5 results
|